Regional Weather Roundup
Issued by NWS

Home | Current Version | Previous Version | Text Only | Print | Product List | Glossary On
Versions: 1 2 3 4 5 6 7 8 9 10 11 12 13 14 15 16 17 18 19 20 21 22 23 24 25 26 27 28 29 30 31 32 33 34 35 36 37 38 39 40 41 42 43 44 45 46 47 48 49 50
000
ASCA44 KEWX 271620
RWRMX

LATIN AMERICA AND CARIBBEAN REGIONAL WEATHER ROUNDUP
NATIONAL WEATHER SERVICE AUSTIN/SAN ANTONIO TX
1100 AM CDT FRI MAY 27 2016

NOTE: "FAIR" INDICATED FEW OR NO CLOUDS BELOW 12,000 FEET WITH NO
SIGNIFICANT WEATHER AND/OR OBSTRUCTIONS TO VISIBILITY.

BAJA CALIFORNIA

CITY           SKY/WX    TMP DP  RH WIND       PRES   REMARKS
LORETO         SUNNY     79  63  57 CALM      29.84S
LA PAZ         SUNNY     75  54  46 N7        29.89S
MEXICALI       SUNNY     77  50  38 SE3       29.85S
S.J. DEL CABO  SUNNY     81  66  61 CALM      29.88S
TIJUANA        CLOUDY    61  54  77 W7        29.97S

NORTHWESTERN MEXICO

CITY           SKY/WX    TMP DP  RH WIND       PRES   REMARKS
CULIACAN       MOSUNNY   86  64  48 SE5       29.86R
DURANGO        SUNNY     75  37  25 S3        30.18F
GUAYMAS        SUNNY     81  45  28 CALM      29.80F
HERMOSILLO     SUNNY     79  45  29 CALM      29.88S
CD. JUAREZ     SUNNY     73  37  27 SW9       29.92S
LOS MOCHIS     SUNNY     79  57  47 CALM      29.85S
OBREGON        SUNNY     81  34  18 CALM      29.83R

NORTHEASTERN MEXICO

CITY           SKY/WX    TMP DP  RH WIND       PRES   REMARKS
CHIHUAHUA      SUNNY     72  27  18 S8        30.04F
MATAMOROS      PTSUNNY   88  77  70 S17       29.76S HX 100
MONCLOVA       SUNNY     91  41  17 SW8       29.82S
MONTERREY      SUNNY     95  54  24 W18       29.75F HX  93
NUEVO LAREDO   SUNNY     86  72  62 N5        29.75R HX  92
PIEDRAS NEGRAS SUNNY     86  63  45 NW9       29.76S
REYNOSA        MOSUNNY   86  70  58 S12G23    29.73F HX  90
SALTILLO       SUNNY     84  59  42 S7        30.09S
TORREON          N/A    N/A N/A N/A MISG        N/A
CD. VICTORIA   PTSUNNY   86  72  62 SE13G24   29.76F HX  92

WESTERN MEXICO

CITY           SKY/WX    TMP DP  RH WIND       PRES   REMARKS
AGUASCALIENTES SUNNY     73  46  38 S5        30.23S
COLIMA         MOSUNNY   82  61  47 CALM      30.00S
DEL BAJIO      SUNNY     75  55  50 S9        30.26F
GUADALAJARA    SUNNY     79  52  38 NW5       30.14F
MANZANILLO       N/A    N/A N/A N/A MISG        N/A
MAZATLAN       MOSUNNY   86  70  58 S5        29.85S HX  90
P. VALLARTA    SUNNY     84  72  65 S3        29.85S
URUAPAN        MOSUNNY   77  55  47 CALM      30.15S
ZACATECAS      MOSUNNY   73  45  35 NW6       30.26S

CENTRAL MEXICO

CITY           SKY/WX    TMP DP  RH WIND       PRES   REMARKS
CUERNAVACA       N/A    N/A N/A N/A MISG        N/A
MEXICO CITY    MOSUNNY   70  50  49 SE3       30.30F
MORELIA        MOSUNNY   73  57  56 SE2       30.22S
POZA RICA      PTSUNNY   90  77  66 S5        29.84S HX 102
PUEBLA         SUNNY     72  50  46 SE5       30.29S
QUERETARO      MOSUNNY   72  55  56 NW3       30.26F
S. LUIS POTOSI SUNNY     72  55  56 SE5       30.18F
TAMPICO        PTSUNNY   86  77  74 SE6       29.79F HX  97
TOLUCA         MOSUNNY   68  55  64 N5        30.39S HAZE

SOUTHERN MEXICO

CITY           SKY/WX    TMP DP  RH WIND       PRES   REMARKS
ACAPULCO       MOSUNNY   86  77  74 CALM      29.82S HX  97
B. DE HUATULCO PTSUNNY   86  68  54 E17       29.89S HAZE
OAXACA         MOSUNNY   75  55  50 SE6       30.19S
P. ESCONDIDO   MOSUNNY   84  75  74 S9        29.92R HX  92
VERACRUZ       MOSUNNY   88  79  74 SE10      29.82F HX 102
ZIHUATANEJO    MOSUNNY   88  73  62 SW8       29.82S HX  96

YUCATAN PENINSULA

CITY           SKY/WX    TMP DP  RH WIND       PRES   REMARKS
CAMPECHE       MOSUNNY   90  73  58 SE12G23   29.84S HX  98
CANCUN         PTSUNNY   88  73  62 SE12      29.92S HX  96
CHETUMAL       MOSUNNY   86  75  70 E10       29.90R HX  95
CD. DEL CARMEN SUNNY     90  72  55 SE14      29.85R HX  96
COZUMEL        PTSUNNY   84  73  70 SE12      29.92S HX  91
MERIDA         MOSUNNY   91  72  52 SE14      29.88F HX  98
MINATITLAN     MOSUNNY   90  79  70 N12       29.78S HX 105
TAPACHULA      CLOUDY    79  77  94 CALM      29.82F
TUX. GUTIERREZ PTSUNNY   86  66  51 E9        29.90S
VILLAHERMOSA   MOSUNNY   88  75  66 CALM      29.85S HX  97

CENTRAL AMERICA

CITY           SKY/WX    TMP DP  RH WIND       PRES   REMARKS
BELIZE CITY    MOSUNNY   90  73  58 SE7       29.91S HX  98
MANAGUA        MOSUNNY   91  72  52 NE14      29.80F HX  98

CARIBBEAN

CITY           SKY/WX    TMP DP  RH WIND       PRES   REMARKS
ARUBA          MOSUNNY   88  75  66 E20G32    29.83F HX  97
CURACAO        LGT RAIN  84  75  74 SE18      29.89S HX  92
KINGSTON       MOSUNNY   86  70  58 SE17      29.92S HX  90
NASSAU         MOSUNNY   88  73  62 N6        29.98F HX  96
SAN JUAN       PTSUNNY   86  72  62 SE8       29.96F HX  92
SANTO DOMINGO  LGT RAIN  79  75  89 S6        29.94S
ST. CROIX      MOSUNNY   88  75  66 SE12      29.99  HX  97
ST. KITTS      MOSUNNY   88  73  62 E16       29.97S HX  96
ST. MAARTEN    MOSUNNY   86  75  70 SE15      29.97S HX  95
ST. THOMAS     MOSUNNY   88  77  70 SE13      29.98  HX 100

$$





USA.gov is the U.S. government's official web portal to all federal, state and local government web resources and services.